| time (UTC) | temp F | wind direction | speed knots | gust knots | rain 1hr in | rain 24hr in | rain mn in | humidity % | barometer mb |
| 20260502151601 | 58 | 298 | 13.0 | 20.9 | 0.00 | 0.00 | 0.00 | 42 | 1009.9 |
| 20260502123021 | 47 | 216 | 5.2 | 8.7 | 0.00 | 0.00 | 0.00 | 52 | 1010.5 |
| 20260502121520 | 46 | 177 | 6.1 | 9.6 | 0.00 | 0.00 | 0.00 | 53 | 1010.6 |
| 20260502114518 | 47 | 165 | 2.6 | 7.8 | 0.00 | 0.00 | 0.00 | 50 | 1011.0 |
| 20260502113016 | 48 | 198 | 8.7 | 12.2 | 0.00 | 0.00 | 0.00 | 50 | 1011.0 |
| 20260502111514 | 49 | 184 | 7.8 | 12.2 | 0.00 | 0.00 | 0.00 | 46 | 1011.3 |
| 20260502110012 | 50 | 205 | 14.8 | 20.9 | 0.00 | 0.00 | 0.00 | 44 | 1011.2 |
| 20260502104510 | 50 | 203 | 11.3 | 18.2 | 0.00 | 0.00 | 0.00 | 45 | 1011.5 |
| 20260502103016 | 49 | 213 | 12.2 | 16.5 | 0.00 | 0.00 | 0.00 | 46 | 1011.8 |
| 20260502101504 | 48 | 219 | 7.8 | 10.4 | 0.00 | 0.00 | 0.00 | 49 | 1012.2 |
| 20260502080103 | 46 | 200 | 9.6 | 14.8 | 0.00 | 0.00 | 0.00 | 50 | 1013.0 |
| 20260502070039 | 45 | 190 | 8.7 | 13.0 | 0.00 | 0.00 | 0.00 | 53 | 1014.0 |
| 20260502064550 | 44 | 194 | 8.7 | 11.3 | 0.00 | 0.00 | 0.00 | 54 | 1014.1 |
| 20260502063035 | 43 | 197 | 9.6 | 12.2 | 0.00 | 0.00 | 0.00 | 56 | 1014.2 |
| 20260502061528 | 43 | 200 | 7.8 | 13.9 | 0.00 | 0.00 | 0.00 | 55 | 1014.5 |
| 20260502060027 | 42 | 187 | 7.0 | 9.6 | 0.00 | 0.00 | 0.00 | 56 | 1014.7 |
| 20260502054529 | 43 | 190 | 6.1 | 8.7 | 0.00 | 0.00 | 0.00 | 55 | 1014.8 |
| 20260502053021 | 42 | 178 | 6.1 | 7.8 | 0.00 | 0.00 | 0.00 | 56 | 1014.9 |
| 20260502051521 | 41 | 173 | 6.1 | 7.8 | 0.00 | 0.00 | 0.00 | 56 | 1014.9 |
| 20260502050022 | 42 | 171 | 6.1 | 6.1 | 0.00 | 0.00 | 0.00 | 55 | 1015.0 |
| 20260502044515 | 41 | 171 | 5.2 | 7.0 | 0.00 | 0.00 | 0.00 | 56 | 1015.2 |
| 20260502043113 | 41 | 171 | 4.3 | 6.1 | 0.00 | 0.00 | 0.00 | 56 | 1015.3 |
| 20260502041511 | 42 | 167 | 7.0 | 7.8 | 0.00 | 0.00 | 0.00 | 54 | 1015.5 |
| 20260502040012 | 42 | 163 | 5.2 | 7.0 | 0.00 | 0.00 | 0.00 | 53 | 1015.6 |
| 20260502034509 | 42 | 161 | 4.3 | 6.1 | 0.00 | 0.00 | 0.00 | 53 | 1015.7 |
| 20260502033009 | 41 | 162 | 4.3 | 6.1 | 0.00 | 0.00 | 0.00 | 50 | 1015.7 |
| 20260502031507 | 42 | 173 | 1.7 | 2.6 | 0.00 | 0.00 | 0.00 | 47 | 1015.7 |
| 20260502030007 | 43 | 174 | 2.6 | 4.3 | 0.00 | 0.00 | 0.00 | 44 | 1015.7 |
| 20260502024507 | 46 | 174 | 1.7 | 3.5 | 0.00 | 0.00 | 0.00 | 40 | 1015.6 |
| 20260502023006 | 47 | 174 | 1.7 | 2.6 | 0.00 | 0.00 | 0.00 | 39 | 1015.7 |
| 20260502021505 | 50 | 174 | 1.7 | 4.3 | 0.00 | 0.00 | 0.00 | 37 | 1015.6 |
| 20260502020005 | 54 | 250 | 1.7 | 2.6 | 0.00 | 0.00 | 0.00 | 30 | 1015.7 |
| 20260502014514 | 59 | 252 | 2.6 | 3.5 | 0.00 | 0.00 | 0.00 | 26 | 1015.7 |
| 20260502013003 | 62 | 302 | 0.0 | 1.7 | 0.00 | 0.00 | 0.00 | 25 | 1015.6 |
| 20260502011502 | 63 | 302 | 0.0 | 2.6 | 0.00 | 0.00 | 0.00 | 24 | 1015.8 |
| 20260502010001 | 63 | 302 | 1.7 | 2.6 | 0.00 | 0.00 | 0.00 | 24 | 1015.9 |
| 20260502004607 | 64 | 302 | 0.9 | 3.5 | 0.00 | 0.00 | 0.00 | 23 | 1016.0 |
| 20260502003138 | 64 | 302 | 3.5 | 8.7 | 0.00 | 0.00 | 0.00 | 24 | 1016.1 |
| 20260502001633 | 64 | 298 | 3.5 | 10.4 | 0.00 | 0.00 | 0.00 | 23 | 1016.2 |
| 20260502000059 | 64 | 286 | 2.6 | 8.7 | 0.00 | 0.00 | 0.00 | 23 | 1016.3 |
| 20260501234555 | 64 | 271 | 2.6 | 9.6 | 0.00 | 0.00 | 0.00 | 23 | 1016.3 |
| 20260501233054 | 65 | 310 | 6.1 | 11.3 | 0.00 | 0.00 | 0.00 | 23 | 1016.5 |
| 20260501231551 | 65 | 313 | 7.0 | 12.2 | 0.00 | 0.00 | 0.00 | 23 | 1016.7 |
| 20260501230050 | 64 | 290 | 5.2 | 13.9 | 0.00 | 0.00 | 0.00 | 23 | 1016.7 |
| 20260501224557 | 64 | 282 | 7.8 | 12.2 | 0.00 | 0.00 | 0.00 | 24 | 1016.7 |
| 20260501223048 | 64 | 301 | 10.4 | 17.4 | 0.00 | 0.00 | 0.00 | 23 | 1016.9 |
| 20260501221546 | 65 | 312 | 8.7 | 15.6 | 0.00 | 0.00 | 0.00 | 23 | 1016.9 |
| 20260501220048 | 64 | 322 | 11.3 | 16.5 | 0.00 | 0.00 | 0.00 | 24 | 1017.0 |
| 20260501214542 | 64 | 290 | 7.8 | 15.6 | 0.00 | 0.00 | 0.00 | 24 | 1017.2 |
| 20260501213044 | 63 | 260 | 7.8 | 14.8 | 0.00 | 0.00 | 0.00 | 25 | 1017.2 |
| 20260501211537 | 63 | 269 | 8.7 | 16.5 | 0.00 | 0.00 | 0.00 | 24 | 1017.4 |
| 20260501210037 | 64 | 309 | 7.8 | 16.5 | 0.00 | 0.00 | 0.00 | 25 | 1017.6 |
| 20260501204533 | 63 | 271 | 4.3 | 14.8 | 0.00 | 0.00 | 0.00 | 27 | 1017.8 |
| 20260501203034 | 63 | 290 | 7.8 | 14.8 | 0.00 | 0.00 | 0.00 | 27 | 1018.0 |
| 20260501201531 | 62 | 292 | 7.0 | 14.8 | 0.00 | 0.00 | 0.00 | 27 | 1018.0 |
| 20260501200028 | 62 | 304 | 8.7 | 14.8 | 0.00 | 0.00 | 0.00 | 28 | 1018.3 |
| 20260501194529 | 62 | 282 | 5.2 | 13.0 | 0.00 | 0.00 | 0.00 | 27 | 1018.2 |
| 20260501193024 | 62 | 308 | 6.1 | 14.8 | 0.00 | 0.00 | 0.00 | 28 | 1018.3 |
| 20260501191520 | 61 | 262 | 7.0 | 10.4 | 0.00 | 0.00 | 0.00 | 28 | 1018.3 |
| 20260501190019 | 60 | 243 | 3.5 | 8.7 | 0.00 | 0.00 | 0.00 | 29 | 1018.4 |
| 20260501184516 | 60 | 355 | 7.8 | 14.8 | 0.00 | 0.00 | 0.00 | 29 | 1018.5 |
| 20260501183013 | 60 | 263 | 4.3 | 11.3 | 0.00 | 0.00 | 0.00 | 30 | 1018.6 |
| 20260501181520 | 59 | 318 | 6.1 | 10.4 | 0.00 | 0.00 | 0.00 | 31 | 1018.8 |
| 20260501180011 | 58 | 304 | 7.0 | 10.4 | 0.00 | 0.00 | 0.00 | 31 | 1019.0 |
| 20260501174511 | 58 | 297 | 7.0 | 12.2 | 0.00 | 0.00 | 0.00 | 31 | 1019.2 |
| 20260501173007 | 57 | 309 | 9.6 | 13.0 | 0.00 | 0.00 | 0.00 | 32 | 1019.4 |
| 20260501171512 | 56 | 315 | 6.1 | 10.4 | 0.00 | 0.00 | 0.00 | 33 | 1019.5 |
| 20260501170005 | 56 | 305 | 5.2 | 9.6 | 0.00 | 0.00 | 0.00 | 34 | 1019.5 |
| 20260501164606 | 55 | 250 | 4.3 | 7.8 | 0.00 | 0.00 | 0.00 | 34 | 1019.4 |
| 20260501163057 | 55 | 257 | 1.7 | 9.6 | 0.00 | 0.00 | 0.00 | 36 | 1019.4 |
| 20260501161608 | 54 | 272 | 2.6 | 7.0 | 0.00 | 0.00 | 0.00 | 34 | 1019.3 |
| 20260501160100 | 54 | 306 | 3.5 | 8.7 | 0.00 | 0.00 | 0.00 | 36 | 1019.5 |
| 20260501154601 | 52 | 303 | 2.6 | 7.8 | 0.00 | 0.00 | 0.00 | 39 | 1019.6 |
| 20260501153057 | 51 | 288 | 7.8 | 10.4 | 0.00 | 0.00 | 0.00 | 41 | 1019.7 |